BRITE-PL2 (HEWELIUSZ)

Last updated on Wed Oct 29 2025 00:03:35 GMT+0000 (Coordinated Universal Time)

1 40119U 14049B 25301.30885347 .00004045 00000+0 39081-3 0 9998 2 40119 97.8979 46.9618 0015048 154.2327 205.9645 14.93319062606823
UTC large
Height (km)
Speed (km/s)
/
Latitude / Longitude
Inclination (degrees)
Orbital Period (minutes)
Azimuth
Elevation
Range (km)
Doppler Factor

Next 0 passes for location: London (51.5072 / 0.1276)

Sorry there are no passes over London.